ONEWEB-0015, 61594

Orbit data source: Space-Track

ONEWEB-0015, 61594 is a payload satellite owned by Eut. One Web (UK) in LEO that was launched on Sun, 20 Oct 2024 UTC via an FALCON 9 launch vehicle from the Air Force Western Test Range (AFWTR). Payload-class satellites include a variety of spacecraft equipped with specific instruments for various scientific and technological missions. These include communications satellites like Starlink; space stations such as the ISS; scientific satellites like the Hubble; Earth observation satellites from companies like Planet Labs, Umbra, and HawkEye 360; GPS; miniature CubeSats for education and research; and military/defense satellites.

Loading next visibility...
Identifier
61594, 2024-188A
Orbit
LEO
Country
Flag of UKUK
Related business
Manufacturer
One Web
Mission
Operational Commercial Communications
Bus & Motor
ARROW, Unknown motor
Mass
148 kg wet, ~140 kg dry
Launch date (UTC)
2024-10-20 (1 year ago)
Launch vehicle
FALCON 9
Launch site
Air Force Western Test Range (AFWTR)
Object type
Payload
Rocket body
Debris
Shape & HBR
Trap Box + 2 Pan, 6.7 m
Radar Cross Section
3.464 m², Large (>1 m²)

Expand to show TLE details & history
Last TLE update: 17 hours ago

TLE from 17 hours ago
0 ONEWEB-0015
1 61594U 24188A   25309.60733461  .00000154  00000-0  39911-3 0  9993
2 61594  87.8854  65.6239 0001002 101.9922 258.1319 13.11418715 55152
Epoch: 2025-11-05T14:34Z
TLE epoch observation values (Epoch: 2025-11-05T14:34:33.710Z)
Latitude
0.00006°
Longitude
161.90587°
Altitude
1,220.722 km
Speed
7.244 km/s
True Right ascension
04h 22m 29s
True Declination
0° 00' 00"
Sunlit
Object was in full shadow at epoch
Visualization orbit readout
Latitude
Unknown
Longitude
Unknown
Altitude
Unknown
Speed
Unknown
Apparent Right ascension
Unknown
Apparent Declination
Unknown
Sunlit
N/A
Visualization observer readout
Local Sidereal Time
03:41:19
Azimuth
Unknown
Elevation
Unknown
Doppler factor
Unknown
Orbital elements
Apogee altitude
1,215.555 km
Perigee altitude
1,214.033 km
Semi-major axis
7,592.931 km
Eccentricity
0.0001
Inclination
87.8854°
RAAN
65.6239°
Arg. of periapsis
101.9922°
True anomaly
258.12066°
Mean anomaly
258.1319°
Eccentric anomaly
258.12628°
Mean motion
3.28042 °/min
Orbital period
109.74 mins
BSTAR
0.00039911
Loading maneuver chart data...
Computing Atmospheric mass density...
Loading historical data...
Loading historical data...
Loading historical data...
Loading historical data...
Loading historical data...
Loading historical data...
Loading historical data...

Documentation

Showing up to 5 results
|